Flag for Canada Weather past 2 weeks in Hopedale, Newfoundland and Labrador, Canada

Now
41 °F

Quite cool.


Feels Like: 35 °F
Forecast: 40 / 42 °F
Wind: 9 mph from East

Location: Hopedale

Current Time: Sep 22, 2014 at 7:53:57 AM

Latest Report: Sep 22, 2014 at 7:00 AM


Visibility: N/A

Pressure: 29.86 "Hg

Humidity: 92%

Dew point: 38 °F

Location of HopedaleLocation

Historic Weather in Hopedale — Graph

°F

Hopedale temperature yesterday

Maximum temperature yesterday: 49 °F (at 9:00 AM)
Minimum temperature yesterday: 40 °F (at 11:00 PM)
Average temperature yesterday: 44 °F

Past Weeks' High & Low Weather Summary

 TemperatureHumidityPressure
High74 °F (Sep 9, 5:00 PM)99% (Sep 10, 5:00 PM)30.25 "Hg (Sep 10, 5:00 PM)
Low35 °F (Sep 19, 3:00 AM)35% (Sep 18, 5:00 PM)29.23 "Hg (Sep 12, 10:00 AM)
Average46 °F74%29.81 "Hg
* Reported Sep 7 6:00 AM — Sep 22 6:00 AM, Hopedale, Weather by CustomWeather, © 2014

Note: Actual official high and low records may vary slightly from our data, if they occured in-between our weather recording intervals... More about our weather records

Advertising

Hopedale weather history for previous 24 hours

 ConditionsComfort  
Time TempWeatherWind HumidityBarometerVisibility
6:00 AM
Sep 22
40 °FQuite cool.10 mph92%29.85 "HgN/A
5:00 AM38 °FChilly.9 mph99%29.85 "HgN/A
4:00 AM40 °FQuite cool.8 mph93%29.85 "HgN/A
3:00 AM40 °FChilly.9 mph93%29.85 "HgN/A
2:00 AM40 °FQuite cool.7 mph94%29.85 "HgN/A
1:00 AM40 °FQuite cool.7 mph93%29.83 "HgN/A
12:00 AM40 °FQuite cool.7 mph93%29.83 "HgN/A
11:00 PM
Sep 21
40 °FQuite cool.8 mph93%29.82 "HgN/A
10:00 PM40 °FQuite cool.8 mph93%29.80 "HgN/A
9:00 PM40 °FQuite cool.9 mph93%29.80 "HgN/A
8:00 PM41 °FQuite cool.8 mph92%29.78 "HgN/A
7:00 PM40 °FQuite cool.9 mph92%29.75 "HgN/A
6:00 PM41 °FQuite cool.10 mph92%29.74 "HgN/A
5:00 PM41 °FQuite cool.9 mph89%29.72 "HgN/A
4:00 PM41 °FQuite cool.10 mph89%29.71 "HgN/A
3:00 PM42 °FQuite cool.9 mph88%29.70 "HgN/A
2:00 PM42 °FQuite cool.7 mph89%29.70 "HgN/A
1:00 PM42 °FQuite cool.10 mph92%29.68 "HgN/A
12:00 PM43 °FQuite cool.12 mph84%29.68 "HgN/A
11:00 AM43 °FQuite cool.8 mph85%29.66 "HgN/A
10:00 AM43 °FQuite cool.12 mph93%29.64 "HgN/A
9:00 AM49 °FCool.14 mph75%29.60 "HgN/A
8:00 AM47 °FCool.16 mph78%29.59 "HgN/A
7:00 AM46 °FCool.15 mph79%29.58 "HgN/A
Weather by CustomWeather, © 2014

See weather overviewHow to use our weather pages